Time,TemperatureF,DewpointF,PressureIn,WindDirection,WindDirectionDegrees,WindSpeedMPH,WindSpeedGustMPH,Humidity,HourlyPrecipIn,Conditions,Clouds,dailyrainin,SoftwareType,DateUTC
2013-05-02 00:01:00,56.7,51.2,30.02,SSE,158,0.0,0.0,82,0.00,,,0.00,WeatherDisplay:10.37,2013-05-02 04:01:00,
2013-05-02 00:02:00,56.5,51.1,30.02,SSE,158,0.0,0.0,82,0.00,,,0.00,WeatherDisplay:10.37,2013-05-02 04:02:00,
2013-05-02 00:07:00,56.5,51.1,30.03,SSE,158,0.0,0.0,82,0.00,,,0.00,WeatherDisplay:10.37,2013-05-02 04:07:00,
2013-05-02 00:12:00,56.5,51.1,30.02,SW,225,0.0,0.0,82,0.00,,,0.00,WeatherDisplay:10.37,2013-05-02 04:12:00,
2013-05-02 00:17:00,56.5,51.1,30.02,SW,225,0.0,0.0,82,0.00,,,0.00,WeatherDisplay:10.37,2013-05-02 04:17:00,
2013-05-02 00:22:00,56.5,51.4,30.03,SE,135,0.0,0.0,83,0.00,,,0.00,WeatherDisplay:10.37,2013-05-02 04:22:00,
2013-05-02 00:27:00,56.5,51.4,30.03,SE,135,0.0,0.0,83,0.00,,,0.00,WeatherDisplay:10.37,2013-05-02 04:27:00,
2013-05-02 00:32:00,56.5,51.4,30.03,South,180,0.0,0.0,83,0.00,,,0.00,WeatherDisplay:10.37,2013-05-02 04:32:00,
2013-05-02 00:37:00,56.5,51.4,30.03,SSE,158,0.0,0.0,83,0.00,,,0.00,WeatherDisplay:10.37,2013-05-02 04:37:00,
2013-05-02 00:42:00,56.3,51.2,30.03,South,180,0.0,0.0,83,0.00,,,0.00,WeatherDisplay:10.37,2013-05-02 04:42:00,
2013-05-02 00:47:00,56.3,51.2,30.03,SSW,202,0.0,1.6,83,0.00,,,0.00,WeatherDisplay:10.37,2013-05-02 04:47:00,
2013-05-02 00:52:00,56.1,51.0,30.03,South,180,0.0,0.0,83,0.00,,,0.00,WeatherDisplay:10.37,2013-05-02 04:52:00,
2013-05-02 00:57:00,56.1,51.0,30.02,WSW,248,0.1,6.0,83,0.00,,,0.00,WeatherDisplay:10.37,2013-05-02 04:57:00,
2013-05-02 01:02:00,56.1,51.0,30.02,SSW,202,0.0,0.0,83,0.00,,,0.00,WeatherDisplay:10.37,2013-05-02 05:02:00,
2013-05-02 01:07:00,55.9,50.9,30.02,SSW,202,0.0,0.0,83,0.00,,,0.00,WeatherDisplay:10.37,2013-05-02 05:07:00,
2013-05-02 01:12:00,55.9,50.9,30.02,WSW,248,0.0,0.0,83,0.00,,,0.00,WeatherDisplay:10.37,2013-05-02 05:12:00,
2013-05-02 01:17:00,55.9,50.9,30.02,South,180,0.0,0.0,83,0.00,,,0.00,WeatherDisplay:10.37,2013-05-02 05:17:00,
2013-05-02 01:22:00,55.9,50.9,30.02,South,180,0.0,0.0,83,0.00,,,0.00,WeatherDisplay:10.37,2013-05-02 05:22:00,
2013-05-02 01:27:00,55.9,50.9,30.02,South,180,0.0,0.0,83,0.00,,,0.00,WeatherDisplay:10.37,2013-05-02 05:27:00,
2013-05-02 01:32:00,55.9,50.9,30.02,SW,225,0.7,2.3,83,0.00,,,0.00,WeatherDisplay:10.37,2013-05-02 05:32:00,
2013-05-02 01:37:00,55.9,50.9,30.03,SW,225,0.0,0.0,83,0.00,,,0.00,WeatherDisplay:10.37,2013-05-02 05:37:00,
2013-05-02 01:42:00,55.9,50.9,30.03,SW,225,0.0,0.0,83,0.00,,,0.00,WeatherDisplay:10.37,2013-05-02 05:42:00,
2013-05-02 01:47:00,55.8,50.7,30.03,South,180,0.0,0.0,83,0.00,,,0.00,WeatherDisplay:10.37,2013-05-02 05:47:00,
2013-05-02 01:52:00,55.8,50.7,30.02,SSE,158,0.0,0.0,83,0.00,,,0.00,WeatherDisplay:10.37,2013-05-02 05:52:00,
2013-05-02 01:57:00,55.6,50.5,30.01,SW,225,0.0,0.0,83,0.00,,,0.00,WeatherDisplay:10.37,2013-05-02 05:57:00,
2013-05-02 02:02:00,55.6,50.5,30.01,SW,225,0.0,0.0,83,0.00,,,0.00,WeatherDisplay:10.37,2013-05-02 06:02:00,
2013-05-02 02:07:00,55.6,50.2,30.01,South,180,0.0,0.0,82,0.00,,,0.00,WeatherDisplay:10.37,2013-05-02 06:07:00,
2013-05-02 02:12:00,55.6,50.2,30.01,South,180,0.0,0.0,82,0.00,,,0.00,WeatherDisplay:10.37,2013-05-02 06:12:00,
2013-05-02 02:17:00,55.4,50.0,30.01,South,180,0.0,0.0,82,0.00,,,0.00,WeatherDisplay:10.37,2013-05-02 06:17:00,
2013-05-02 02:22:00,55.4,50.3,30.01,South,180,0.0,0.0,83,0.00,,,0.00,WeatherDisplay:10.37,2013-05-02 06:22:00,
2013-05-02 02:27:00,55.2,50.1,30.01,South,180,0.0,0.0,83,0.00,,,0.00,WeatherDisplay:10.37,2013-05-02 06:27:00,
2013-05-02 02:32:00,55.2,50.1,30.01,SSW,202,0.0,0.0,83,0.00,,,0.00,WeatherDisplay:10.37,2013-05-02 06:32:00,
2013-05-02 02:37:00,55.2,50.1,30.01,SSW,202,0.0,0.0,83,0.00,,,0.00,WeatherDisplay:10.37,2013-05-02 06:37:00,
2013-05-02 02:42:00,55.2,50.1,30.01,SSW,202,0.0,0.0,83,0.00,,,0.00,WeatherDisplay:10.37,2013-05-02 06:42:00,
2013-05-02 02:47:00,55.2,50.1,30.01,SSE,158,0.0,0.0,83,0.00,,,0.00,WeatherDisplay:10.37,2013-05-02 06:47:00,
2013-05-02 02:52:00,55.2,50.1,30.01,SSE,158,0.0,0.0,83,0.00,,,0.00,WeatherDisplay:10.37,2013-05-02 06:52:00,
2013-05-02 02:57:00,55.2,50.1,30.01,SSE,158,0.0,0.0,83,0.00,,,0.00,WeatherDisplay:10.37,2013-05-02 06:57:00,
2013-05-02 03:02:00,55.2,50.1,30.01,SSE,158,0.0,0.0,83,0.00,,,0.00,WeatherDisplay:10.37,2013-05-02 07:02:00,
2013-05-02 03:07:00,55.2,50.1,30.01,SSE,158,0.0,0.0,83,0.00,,,0.00,WeatherDisplay:10.37,2013-05-02 07:07:00,
2013-05-02 03:12:00,55.2,50.1,30.01,SSE,158,0.0,0.0,83,0.00,,,0.00,WeatherDisplay:10.37,2013-05-02 07:12:00,
2013-05-02 03:17:00,55.2,50.1,30.01,SSE,158,0.0,0.0,83,0.00,,,0.00,WeatherDisplay:10.37,2013-05-02 07:17:00,
2013-05-02 03:22:00,55.2,50.1,30.00,SSE,158,0.0,0.0,83,0.00,,,0.00,WeatherDisplay:10.37,2013-05-02 07:22:00,
2013-05-02 03:27:00,55.2,50.1,30.00,SSE,158,0.0,0.0,83,0.00,,,0.00,WeatherDisplay:10.37,2013-05-02 07:27:00,
2013-05-02 03:32:00,55.2,50.1,30.00,SSE,158,0.0,0.0,83,0.00,,,0.00,WeatherDisplay:10.37,2013-05-02 07:32:00,
2013-05-02 03:37:00,55.2,50.1,30.00,SSE,158,0.0,0.0,83,0.00,,,0.00,WeatherDisplay:10.37,2013-05-02 07:37:00,
2013-05-02 03:42:00,55.2,50.1,30.00,SSE,158,0.0,0.0,83,0.00,,,0.00,WeatherDisplay:10.37,2013-05-02 07:42:00,
2013-05-02 03:47:00,55.2,50.1,30.00,SSE,158,0.0,0.0,83,0.00,,,0.00,WeatherDisplay:10.37,2013-05-02 07:47:00,
2013-05-02 03:52:00,55.2,50.1,30.00,SSE,158,0.0,0.0,83,0.00,,,0.00,WeatherDisplay:10.37,2013-05-02 07:52:00,
2013-05-02 03:57:00,55.0,50.0,30.00,SSE,158,0.0,0.0,83,0.00,,,0.00,WeatherDisplay:10.37,2013-05-02 07:57:00,
2013-05-02 04:02:00,55.0,50.0,30.00,SSE,158,0.0,0.0,83,0.00,,,0.00,WeatherDisplay:10.37,2013-05-02 08:02:00,
2013-05-02 04:07:00,55.0,50.0,29.99,SSE,158,0.0,0.0,83,0.00,,,0.00,WeatherDisplay:10.37,2013-05-02 08:07:00,
2013-05-02 04:12:00,55.0,50.0,29.99,SSE,158,0.0,0.0,83,0.00,,,0.00,WeatherDisplay:10.37,2013-05-02 08:12:00,
2013-05-02 04:17:00,55.0,50.0,29.99,SSE,158,0.0,0.0,83,0.00,,,0.00,WeatherDisplay:10.37,2013-05-02 08:17:00,
2013-05-02 04:22:00,55.0,50.0,29.99,SSE,158,0.0,0.0,83,0.00,,,0.00,WeatherDisplay:10.37,2013-05-02 08:22:00,
2013-05-02 04:27:00,54.9,50.1,29.99,SSE,158,0.0,0.0,84,0.00,,,0.00,WeatherDisplay:10.37,2013-05-02 08:27:00,
2013-05-02 04:32:00,54.9,50.1,29.99,SSE,158,0.0,0.0,84,0.00,,,0.00,WeatherDisplay:10.37,2013-05-02 08:32:00,
2013-05-02 04:37:00,54.9,50.1,29.99,SSE,158,0.0,0.0,84,0.00,,,0.00,WeatherDisplay:10.37,2013-05-02 08:37:00,
2013-05-02 04:42:00,54.7,49.9,29.99,SSE,158,0.0,0.0,84,0.00,,,0.00,WeatherDisplay:10.37,2013-05-02 08:42:00,
2013-05-02 04:47:00,54.7,49.9,29.98,SSE,158,0.0,0.0,84,0.00,,,0.00,WeatherDisplay:10.37,2013-05-02 08:47:00,
2013-05-02 04:52:00,54.7,49.9,29.99,SSE,158,0.0,0.0,84,0.00,,,0.00,WeatherDisplay:10.37,2013-05-02 08:52:00,
2013-05-02 04:57:00,54.7,49.9,29.99,SSE,158,0.0,0.0,84,0.00,,,0.00,WeatherDisplay:10.37,2013-05-02 08:57:00,
2013-05-02 05:02:00,54.5,50.1,29.99,SSE,158,0.0,0.0,85,0.00,,,0.00,WeatherDisplay:10.37,2013-05-02 09:02:00,
2013-05-02 05:07:00,54.5,50.1,29.99,SSE,158,0.0,0.0,85,0.00,,,0.00,WeatherDisplay:10.37,2013-05-02 09:07:00,
2013-05-02 05:12:00,54.3,49.9,29.99,South,180,0.0,0.0,85,0.00,,,0.00,WeatherDisplay:10.37,2013-05-02 09:12:00,
2013-05-02 05:17:00,54.3,50.2,29.99,South,180,0.0,0.0,86,0.00,,,0.00,WeatherDisplay:10.37,2013-05-02 09:17:00,
2013-05-02 05:22:00,54.3,50.2,29.99,South,180,0.0,0.0,86,0.00,,,0.00,WeatherDisplay:10.37,2013-05-02 09:22:00,
2013-05-02 05:27:00,54.3,50.2,29.99,South,180,0.0,0.0,86,0.00,,,0.02,WeatherDisplay:10.37,2013-05-02 09:27:00,
2013-05-02 05:32:00,54.3,50.2,29.98,South,180,0.0,0.0,86,0.02,RA,,0.02,WeatherDisplay:10.37,2013-05-02 09:32:00,
2013-05-02 05:37:00,54.3,50.2,29.98,South,180,0.0,0.0,86,0.02,RA,,0.02,WeatherDisplay:10.37,2013-05-02 09:37:00,
2013-05-02 05:42:00,54.1,50.4,29.98,South,180,0.0,0.0,87,0.02,,,0.02,WeatherDisplay:10.37,2013-05-02 09:42:00,
2013-05-02 05:47:00,54.1,50.4,29.99,SSW,202,0.0,0.0,87,0.02,,,0.02,WeatherDisplay:10.37,2013-05-02 09:47:00,
2013-05-02 05:52:00,54.1,50.4,29.99,SSW,202,0.0,0.0,87,0.02,,,0.02,WeatherDisplay:10.37,2013-05-02 09:52:00,
2013-05-02 05:57:00,54.0,50.2,29.99,SW,225,0.0,0.0,87,0.02,,,0.02,WeatherDisplay:10.37,2013-05-02 09:57:00,
2013-05-02 06:02:00,54.0,50.2,29.99,SW,225,0.0,0.0,87,0.02,,,0.02,WeatherDisplay:10.37,2013-05-02 10:02:00,
2013-05-02 06:07:00,54.0,50.2,29.99,SW,225,0.0,0.0,87,0.02,,,0.02,WeatherDisplay:10.37,2013-05-02 10:07:00,
2013-05-02 06:12:00,54.0,50.2,29.99,SW,225,0.0,0.0,87,0.02,,,0.02,WeatherDisplay:10.37,2013-05-02 10:12:00,
2013-05-02 06:17:00,54.0,50.2,29.99,SW,225,0.0,0.0,87,0.02,,,0.02,WeatherDisplay:10.37,2013-05-02 10:17:00,
2013-05-02 06:22:00,54.0,50.2,29.99,SW,225,0.0,0.0,87,0.02,,,0.02,WeatherDisplay:10.37,2013-05-02 10:22:00,
2013-05-02 06:27:00,54.1,50.4,29.99,SW,225,0.0,0.0,87,0.02,,,0.02,WeatherDisplay:10.37,2013-05-02 10:27:00,
2013-05-02 06:32:00,54.0,50.2,30.00,SW,225,0.0,0.0,87,0.00,,,0.02,WeatherDisplay:10.37,2013-05-02 10:32:00,
2013-05-02 06:38:00,54.0,50.2,30.00,SW,225,0.0,0.0,87,0.00,,,0.02,WeatherDisplay:10.37,2013-05-02 10:38:00,
2013-05-02 06:43:00,54.0,50.2,30.00,SW,225,0.0,0.0,87,0.00,,,0.02,WeatherDisplay:10.37,2013-05-02 10:43:00,
2013-05-02 06:48:00,54.0,50.2,30.00,SW,225,0.0,0.0,87,0.00,,,0.02,WeatherDisplay:10.37,2013-05-02 10:48:00,
2013-05-02 06:53:00,54.0,50.2,30.00,SW,225,0.0,0.0,87,0.00,,,0.02,WeatherDisplay:10.37,2013-05-02 10:53:00,
2013-05-02 06:58:00,54.0,50.2,30.00,SW,225,0.0,0.0,87,0.00,,,0.02,WeatherDisplay:10.37,2013-05-02 10:58:00,
2013-05-02 07:03:00,54.0,50.2,30.00,SW,225,0.0,0.0,87,0.00,,,0.02,WeatherDisplay:10.37,2013-05-02 11:03:00,
2013-05-02 07:08:00,54.0,50.2,30.00,SW,225,0.0,0.0,87,0.00,,,0.02,WeatherDisplay:10.37,2013-05-02 11:08:00,
2013-05-02 07:13:00,54.1,50.4,30.00,SW,225,0.0,0.0,87,0.00,,,0.02,WeatherDisplay:10.37,2013-05-02 11:13:00,
2013-05-02 07:18:00,54.0,50.2,30.00,SW,225,0.0,0.0,87,0.00,,,0.02,WeatherDisplay:10.37,2013-05-02 11:18:00,
2013-05-02 07:23:00,54.0,50.2,30.00,SW,225,0.0,0.0,87,0.00,,,0.02,WeatherDisplay:10.37,2013-05-02 11:23:00,
2013-05-02 07:28:00,54.0,50.5,30.00,SW,225,0.0,0.0,88,0.00,,,0.02,WeatherDisplay:10.37,2013-05-02 11:28:00,
2013-05-02 07:33:00,54.0,50.5,30.00,SW,225,0.0,0.0,88,0.00,,,0.02,WeatherDisplay:10.37,2013-05-02 11:33:00,
2013-05-02 07:38:00,54.0,50.5,30.00,SW,225,0.0,0.0,88,0.00,,,0.02,WeatherDisplay:10.37,2013-05-02 11:38:00,
2013-05-02 07:43:00,54.0,50.5,30.01,SW,225,0.0,0.0,88,0.02,RA,,0.04,WeatherDisplay:10.37,2013-05-02 11:43:00,
2013-05-02 07:48:00,54.1,50.7,30.01,SW,225,0.0,0.0,88,0.02,RA,,0.04,WeatherDisplay:10.37,2013-05-02 11:48:00,
2013-05-02 07:53:00,54.1,50.7,30.01,SW,225,0.0,0.0,88,0.02,,,0.04,WeatherDisplay:10.37,2013-05-02 11:53:00,
2013-05-02 07:58:00,54.1,50.7,30.01,SW,225,0.0,0.0,88,0.02,,,0.04,WeatherDisplay:10.37,2013-05-02 11:58:00,
2013-05-02 08:03:00,54.1,50.7,30.01,SW,225,0.0,0.0,88,0.02,,,0.04,WeatherDisplay:10.37,2013-05-02 12:03:00,
2013-05-02 08:08:00,54.1,50.7,30.01,SW,225,0.0,0.0,88,0.02,,,0.04,WeatherDisplay:10.37,2013-05-02 12:08:00,
2013-05-02 08:13:00,54.1,50.7,30.01,SW,225,0.0,0.0,88,0.02,,,0.04,WeatherDisplay:10.37,2013-05-02 12:13:00,
2013-05-02 08:18:00,54.1,50.7,30.01,SW,225,0.0,0.0,88,0.02,,,0.04,WeatherDisplay:10.37,2013-05-02 12:18:00,
2013-05-02 08:23:00,54.3,50.8,30.02,SW,226,0.0,0.0,88,0.02,,,0.04,WeatherDisplay:10.37,2013-05-02 12:23:00,
2013-05-02 08:28:00,54.3,50.8,30.02,SW,225,0.0,0.0,88,0.02,,,0.04,WeatherDisplay:10.37,2013-05-02 12:28:00,
2013-05-02 08:33:00,54.3,50.8,30.01,SW,225,0.0,0.0,88,0.02,,,0.04,WeatherDisplay:10.37,2013-05-02 12:33:00,
2013-05-02 08:38:00,54.3,50.8,30.01,SSE,158,0.0,0.0,88,0.02,,,0.04,WeatherDisplay:10.37,2013-05-02 12:38:00,
2013-05-02 08:43:00,54.3,50.8,30.01,SSW,202,0.0,0.0,88,0.00,,,0.04,WeatherDisplay:10.37,2013-05-02 12:43:00,
2013-05-02 08:48:00,54.1,50.7,30.02,SSW,202,0.0,0.0,88,0.00,,,0.04,WeatherDisplay:10.37,2013-05-02 12:48:00,
2013-05-02 08:53:00,54.1,50.7,30.02,SSW,202,0.0,0.0,88,0.00,,,0.04,WeatherDisplay:10.37,2013-05-02 12:53:00,
2013-05-02 08:58:00,54.1,50.7,30.02,SSW,202,0.0,0.0,88,0.00,,,0.04,WeatherDisplay:10.37,2013-05-02 12:58:00,
2013-05-02 09:03:00,54.3,50.8,30.02,SSW,202,0.0,0.0,88,0.00,,,0.04,WeatherDisplay:10.37,2013-05-02 13:03:00,
2013-05-02 09:08:00,54.3,50.8,30.02,SSW,202,0.0,0.0,88,0.00,,,0.04,WeatherDisplay:10.37,2013-05-02 13:08:00,
2013-05-02 09:13:00,54.3,51.1,30.02,SSW,202,0.0,0.0,89,0.02,RA,,0.07,WeatherDisplay:10.37,2013-05-02 13:13:00,
2013-05-02 09:18:00,54.3,51.1,30.02,SSW,202,0.0,0.0,89,0.02,RA,,0.07,WeatherDisplay:10.37,2013-05-02 13:18:00,
2013-05-02 09:23:00,54.3,51.1,30.03,South,180,0.0,0.0,89,0.02,,,0.07,WeatherDisplay:10.37,2013-05-02 13:23:00,
2013-05-02 09:28:00,54.3,51.1,30.03,WSW,248,0.3,3.4,89,0.02,,,0.07,WeatherDisplay:10.37,2013-05-02 13:28:00,
2013-05-02 09:48:00,54.1,50.7,30.03,South,180,0.0,2.3,88,0.02,,,0.07,WeatherDisplay:10.37,2013-05-02 13:48:00,
2013-05-02 09:53:00,54.3,50.8,30.03,SW,225,0.1,1.1,88,0.02,,,0.07,WeatherDisplay:10.37,2013-05-02 13:53:00,
2013-05-02 10:28:00,54.1,50.7,30.04,ESE,112,0.0,1.1,88,0.00,,,0.07,WeatherDisplay:10.37,2013-05-02 14:28:00,
2013-05-02 10:33:00,54.3,50.8,30.04,SSE,158,0.0,0.0,88,0.00,,,0.07,WeatherDisplay:10.37,2013-05-02 14:33:00,
2013-05-02 10:38:00,54.3,50.8,30.04,SSE,158,0.0,0.0,88,0.00,,,0.07,WeatherDisplay:10.37,2013-05-02 14:38:00,
2013-05-02 10:43:00,54.3,50.8,30.04,South,180,0.0,0.0,88,0.00,,,0.07,WeatherDisplay:10.37,2013-05-02 14:43:00,
2013-05-02 10:48:00,54.3,50.8,30.04,South,180,0.0,0.0,88,0.00,,,0.07,WeatherDisplay:10.37,2013-05-02 14:48:00,
2013-05-02 10:53:00,54.3,51.1,30.04,SSW,202,0.0,0.0,89,0.00,,,0.07,WeatherDisplay:10.37,2013-05-02 14:53:00,
2013-05-02 10:58:00,54.3,51.1,30.04,SW,225,0.0,0.0,89,0.00,,,0.07,WeatherDisplay:10.37,2013-05-02 14:58:00,
2013-05-02 11:03:00,54.5,51.3,30.04,SW,225,0.0,0.0,89,0.00,,,0.07,WeatherDisplay:10.37,2013-05-02 15:03:00,
2013-05-02 11:08:00,54.7,51.5,30.04,South,180,0.0,0.0,89,0.00,,,0.07,WeatherDisplay:10.37,2013-05-02 15:08:00,
2013-05-02 11:13:00,55.0,51.9,30.04,SSW,202,0.0,0.0,89,0.00,,,0.07,WeatherDisplay:10.37,2013-05-02 15:13:00,
2013-05-02 11:18:00,55.2,52.0,30.04,SSW,202,0.0,0.0,89,0.00,,,0.07,WeatherDisplay:10.37,2013-05-02 15:18:00,
2013-05-02 11:23:00,55.2,52.0,30.04,SSW,202,0.0,0.0,89,0.00,,,0.07,WeatherDisplay:10.37,2013-05-02 15:23:00,
2013-05-02 11:28:00,55.4,52.2,30.05,SSW,202,0.0,0.0,89,0.00,,,0.07,WeatherDisplay:10.37,2013-05-02 15:28:00,
2013-05-02 11:33:00,55.6,52.4,30.04,SSW,202,0.0,0.0,89,0.00,,,0.07,WeatherDisplay:10.37,2013-05-02 15:33:00,
2013-05-02 11:38:00,55.8,52.6,30.04,SW,225,0.0,0.0,89,0.00,,,0.07,WeatherDisplay:10.37,2013-05-02 15:38:00,
2013-05-02 11:43:00,55.9,52.7,30.04,South,180,0.0,0.0,89,0.00,,,0.07,WeatherDisplay:10.37,2013-05-02 15:43:00,
2013-05-02 11:48:00,56.1,52.9,30.05,South,180,0.0,0.0,89,0.00,,,0.07,WeatherDisplay:10.37,2013-05-02 15:48:00,
2013-05-02 11:53:00,56.3,52.8,30.04,South,180,0.0,0.0,88,0.00,,,0.07,WeatherDisplay:10.37,2013-05-02 15:53:00,
2013-05-02 11:58:00,56.3,52.8,30.04,SSW,202,0.0,0.0,88,0.00,,,0.07,WeatherDisplay:10.37,2013-05-02 15:58:00,
2013-05-02 12:03:00,56.5,53.0,30.04,SE,135,0.0,0.0,88,0.00,,,0.07,WeatherDisplay:10.37,2013-05-02 16:03:00,
2013-05-02 12:08:00,56.8,53.3,30.04,SSE,158,0.0,0.0,88,0.00,,,0.07,WeatherDisplay:10.37,2013-05-02 16:08:00,
2013-05-02 12:13:00,57.0,53.5,30.04,SSW,202,0.0,0.0,88,0.00,,,0.07,WeatherDisplay:10.37,2013-05-02 16:13:00,
2013-05-02 12:18:00,57.2,53.7,30.04,South,180,0.0,0.0,88,0.00,,,0.07,WeatherDisplay:10.37,2013-05-02 16:18:00,
2013-05-02 12:23:00,57.4,53.9,30.04,South,180,0.0,0.0,88,0.00,,,0.07,WeatherDisplay:10.37,2013-05-02 16:23:00,
2013-05-02 12:28:00,57.4,53.9,30.04,South,180,0.0,0.0,88,0.00,,,0.07,WeatherDisplay:10.37,2013-05-02 16:28:00,
2013-05-02 12:33:00,57.4,53.5,30.04,South,180,0.0,0.0,87,0.00,,,0.07,WeatherDisplay:10.37,2013-05-02 16:33:00,
2013-05-02 12:38:00,57.4,53.5,30.04,South,180,0.0,0.0,87,0.00,,,0.07,WeatherDisplay:10.37,2013-05-02 16:38:00,
2013-05-02 12:43:00,57.6,53.7,30.04,South,180,0.0,0.0,87,0.00,,,0.07,WeatherDisplay:10.37,2013-05-02 16:43:00,
2013-05-02 12:48:00,57.4,53.5,30.04,SE,135,0.0,0.0,87,0.00,,,0.07,WeatherDisplay:10.37,2013-05-02 16:48:00,
2013-05-02 12:53:00,57.4,53.5,30.04,SSE,158,0.0,0.0,87,0.00,,,0.07,WeatherDisplay:10.37,2013-05-02 16:53:00,
2013-05-02 12:58:00,57.6,53.7,30.04,SSE,158,0.0,0.0,87,0.00,,,0.07,WeatherDisplay:10.37,2013-05-02 16:58:00,
2013-05-02 13:03:00,57.7,53.9,30.04,South,180,0.0,0.0,87,0.00,,,0.07,WeatherDisplay:10.37,2013-05-02 17:03:00,
2013-05-02 13:08:00,57.7,53.9,30.04,South,180,0.0,0.0,87,0.00,,,0.07,WeatherDisplay:10.37,2013-05-02 17:08:00,
2013-05-02 13:13:00,57.7,53.9,30.04,South,180,0.0,0.0,87,0.00,,,0.07,WeatherDisplay:10.37,2013-05-02 17:13:00,
2013-05-02 13:18:00,57.7,53.6,30.04,South,180,0.0,0.0,86,0.00,,,0.07,WeatherDisplay:10.37,2013-05-02 17:18:00,
2013-05-02 13:23:00,57.7,53.6,30.04,South,180,0.0,0.0,86,0.00,,,0.07,WeatherDisplay:10.37,2013-05-02 17:23:00,
2013-05-02 13:28:00,57.7,53.6,30.04,South,180,0.0,0.0,86,0.00,,,0.07,WeatherDisplay:10.37,2013-05-02 17:28:00,
2013-05-02 13:33:00,57.6,53.4,30.04,South,180,0.0,0.0,86,0.00,,,0.07,WeatherDisplay:10.37,2013-05-02 17:33:00,
2013-05-02 13:38:00,57.4,53.2,30.04,South,180,0.0,0.0,86,0.00,,,0.07,WeatherDisplay:10.37,2013-05-02 17:38:00,
2013-05-02 13:43:00,57.4,53.5,30.04,South,180,0.0,0.0,87,0.00,,,0.07,WeatherDisplay:10.37,2013-05-02 17:43:00,
2013-05-02 13:48:00,57.4,53.5,30.04,ESE,112,0.0,0.0,87,0.00,,,0.07,WeatherDisplay:10.37,2013-05-02 17:48:00,
2013-05-02 13:53:00,57.4,53.5,30.04,SE,135,0.0,0.0,87,0.00,,,0.07,WeatherDisplay:10.37,2013-05-02 17:53:00,
2013-05-02 13:58:00,57.6,53.7,30.04,SE,135,0.0,0.0,87,0.00,,,0.07,WeatherDisplay:10.37,2013-05-02 17:58:00,
2013-05-02 14:03:00,57.7,53.9,30.04,South,180,0.0,0.0,87,0.00,,,0.07,WeatherDisplay:10.37,2013-05-02 18:03:00,
2013-05-02 14:08:00,57.7,53.9,30.04,SSE,158,0.0,0.0,87,0.00,,,0.07,WeatherDisplay:10.37,2013-05-02 18:08:00,
2013-05-02 14:13:00,57.9,54.1,30.04,South,180,0.0,0.0,87,0.00,,,0.07,WeatherDisplay:10.37,2013-05-02 18:13:00,
2013-05-02 14:18:00,58.3,54.4,30.03,SSE,158,0.4,2.3,87,0.00,,,0.07,WeatherDisplay:10.37,2013-05-02 18:18:00,
2013-05-02 14:23:00,58.8,55.0,30.04,SSE,158,0.0,0.0,87,0.00,,,0.07,WeatherDisplay:10.37,2013-05-02 18:23:00,
2013-05-02 14:28:00,59.0,55.1,30.04,South,180,0.0,0.0,87,0.00,,,0.07,WeatherDisplay:10.37,2013-05-02 18:28:00,
2013-05-02 14:33:00,59.2,55.3,30.03,WNW,292,0.0,0.0,87,0.00,,,0.07,WeatherDisplay:10.37,2013-05-02 18:33:00,
2013-05-02 14:38:00,59.4,55.5,30.03,West,270,0.0,0.0,87,0.00,,,0.07,WeatherDisplay:10.37,2013-05-02 18:38:00,
2013-05-02 14:43:00,59.5,55.3,30.03,West,270,0.0,0.0,86,0.00,,,0.07,WeatherDisplay:10.37,2013-05-02 18:43:00,
2013-05-02 14:48:00,59.5,55.3,30.02,WSW,248,0.0,0.0,86,0.00,,,0.07,WeatherDisplay:10.37,2013-05-02 18:48:00,
2013-05-02 14:53:00,59.5,55.0,30.03,SSW,202,0.0,0.0,85,0.00,,,0.07,WeatherDisplay:10.37,2013-05-02 18:53:00,
2013-05-02 14:58:00,59.5,55.0,30.03,South,180,0.0,0.0,85,0.00,,,0.07,WeatherDisplay:10.37,2013-05-02 18:58:00,
2013-05-02 15:03:00,59.4,55.2,30.03,South,180,0.0,0.0,86,0.00,,,0.07,WeatherDisplay:10.37,2013-05-02 19:03:00,
2013-05-02 15:08:00,59.4,54.8,30.03,SSE,158,0.0,0.0,85,0.00,,,0.07,WeatherDisplay:10.37,2013-05-02 19:08:00,
2013-05-02 15:13:00,59.4,54.8,30.03,South,180,0.0,0.0,85,0.00,,,0.07,WeatherDisplay:10.37,2013-05-02 19:13:00,
2013-05-02 15:18:00,59.2,54.7,30.03,South,180,0.0,0.0,85,0.00,,,0.07,WeatherDisplay:10.37,2013-05-02 19:18:00,
2013-05-02 15:23:00,59.2,55.0,30.03,South,180,0.0,0.0,86,0.00,,,0.07,WeatherDisplay:10.37,2013-05-02 19:23:00,
2013-05-02 15:28:00,59.2,55.0,30.03,West,270,0.0,0.0,86,0.00,,,0.07,WeatherDisplay:10.37,2013-05-02 19:28:00,
2013-05-02 15:33:00,59.4,54.8,30.02,ESE,112,0.0,3.5,85,0.00,,,0.07,WeatherDisplay:10.37,2013-05-02 19:33:00,
2013-05-02 15:38:00,59.2,54.7,30.02,SE,135,0.0,0.0,85,0.00,,,0.07,WeatherDisplay:10.37,2013-05-02 19:38:00,
2013-05-02 15:43:00,59.5,55.0,30.02,South,180,0.0,0.0,85,0.00,,,0.07,WeatherDisplay:10.37,2013-05-02 19:43:00,
2013-05-02 15:48:00,59.5,55.0,30.02,SSW,202,1.1,4.6,85,0.00,,,0.07,WeatherDisplay:10.37,2013-05-02 19:48:00,
2013-05-02 15:53:00,59.5,55.0,30.02,South,180,0.0,0.0,85,0.00,,,0.07,WeatherDisplay:10.37,2013-05-02 19:53:00,
2013-05-02 15:58:00,59.5,54.7,30.02,South,180,0.0,0.0,84,0.00,,,0.07,WeatherDisplay:10.37,2013-05-02 19:58:00,
2013-05-02 16:03:00,59.4,54.5,30.02,SSW,202,0.6,5.8,84,0.00,,,0.07,WeatherDisplay:10.37,2013-05-02 20:03:00,
2013-05-02 16:08:00,59.2,54.3,30.01,WSW,248,0.0,0.0,84,0.00,,,0.07,WeatherDisplay:10.37,2013-05-02 20:08:00,
2013-05-02 16:13:00,58.8,54.3,30.01,WSW,248,0.0,0.0,85,0.00,,,0.07,WeatherDisplay:10.37,2013-05-02 20:13:00,
2013-05-02 16:18:00,58.8,54.3,30.02,SW,225,0.0,0.0,85,0.00,,,0.07,WeatherDisplay:10.37,2013-05-02 20:18:00,
2013-05-02 16:23:00,58.8,54.3,30.01,SSW,202,0.0,0.0,85,0.00,,,0.07,WeatherDisplay:10.37,2013-05-02 20:23:00,
2013-05-02 16:28:00,58.8,54.3,30.01,SSW,202,0.0,0.0,85,0.00,,,0.07,WeatherDisplay:10.37,2013-05-02 20:28:00,
2013-05-02 16:33:00,58.8,54.3,30.01,SSW,202,0.0,0.0,85,0.00,,,0.07,WeatherDisplay:10.37,2013-05-02 20:33:00,
2013-05-02 16:38:00,58.6,54.1,30.01,SSW,202,0.0,0.0,85,0.00,,,0.07,WeatherDisplay:10.37,2013-05-02 20:38:00,
2013-05-02 16:43:00,58.6,54.1,30.01,South,180,0.0,0.0,85,0.00,,,0.07,WeatherDisplay:10.37,2013-05-02 20:43:00,
2013-05-02 16:48:00,58.6,54.1,30.01,SE,135,0.0,0.0,85,0.00,,,0.07,WeatherDisplay:10.37,2013-05-02 20:48:00,
2013-05-02 16:53:00,58.3,53.8,30.01,SE,135,0.0,0.0,85,0.00,,,0.07,WeatherDisplay:10.37,2013-05-02 20:53:00,
2013-05-02 16:58:00,58.3,53.8,30.01,SE,135,0.0,0.0,85,0.00,,,0.07,WeatherDisplay:10.37,2013-05-02 20:58:00,
2013-05-02 17:03:00,58.3,54.1,30.00,SE,135,0.0,0.0,86,0.00,,,0.07,WeatherDisplay:10.37,2013-05-02 21:03:00,
2013-05-02 17:08:00,58.3,54.1,30.00,SE,135,0.0,0.0,86,0.00,,,0.07,WeatherDisplay:10.37,2013-05-02 21:08:00,
2013-05-02 17:13:00,58.3,54.1,30.00,SE,135,0.0,0.0,86,0.00,,,0.07,WeatherDisplay:10.37,2013-05-02 21:13:00,
2013-05-02 17:18:00,58.1,53.9,30.00,SE,135,0.0,0.0,86,0.00,,,0.07,WeatherDisplay:10.37,2013-05-02 21:18:00,
2013-05-02 17:23:00,58.1,53.9,30.00,SE,135,0.0,0.0,86,0.00,,,0.07,WeatherDisplay:10.37,2013-05-02 21:23:00,
2013-05-02 17:28:00,58.1,53.9,30.00,SE,135,0.0,0.0,86,0.00,,,0.07,WeatherDisplay:10.37,2013-05-02 21:28:00,
2013-05-02 17:33:00,58.1,53.9,30.00,SSW,202,0.0,0.0,86,0.00,,,0.07,WeatherDisplay:10.37,2013-05-02 21:33:00,
2013-05-02 17:38:00,58.1,53.9,30.00,SSW,202,0.0,0.0,86,0.00,,,0.07,WeatherDisplay:10.37,2013-05-02 21:38:00,
2013-05-02 17:43:00,57.9,53.8,30.00,SSW,202,0.0,0.0,86,0.00,,,0.07,WeatherDisplay:10.37,2013-05-02 21:43:00,
2013-05-02 17:48:00,57.9,53.8,30.00,SSW,202,0.0,0.0,86,0.00,,,0.07,WeatherDisplay:10.37,2013-05-02 21:48:00,
2013-05-02 17:53:00,57.9,53.8,30.00,SSW,202,0.0,0.0,86,0.00,,,0.07,WeatherDisplay:10.37,2013-05-02 21:53:00,
2013-05-02 17:58:00,57.9,53.8,30.00,SSW,202,0.0,0.0,86,0.00,,,0.07,WeatherDisplay:10.37,2013-05-02 21:58:00,
2013-05-02 18:03:00,57.9,53.8,30.00,South,180,0.0,0.0,86,0.00,,,0.07,WeatherDisplay:10.37,2013-05-02 22:03:00,
2013-05-02 18:08:00,57.9,53.8,30.00,South,180,0.0,0.0,86,0.00,,,0.07,WeatherDisplay:10.37,2013-05-02 22:08:00,
2013-05-02 18:13:00,57.7,53.6,30.00,South,180,0.0,0.0,86,0.00,,,0.07,WeatherDisplay:10.37,2013-05-02 22:13:00,
2013-05-02 18:18:00,57.7,53.6,30.00,South,180,0.0,0.0,86,0.00,,,0.07,WeatherDisplay:10.37,2013-05-02 22:18:00,
2013-05-02 18:23:00,57.6,53.4,30.00,SSW,202,0.0,0.0,86,0.00,,,0.07,WeatherDisplay:10.37,2013-05-02 22:23:00,
2013-05-02 18:28:00,57.6,53.4,30.00,SSE,158,0.0,0.0,86,0.00,,,0.07,WeatherDisplay:10.37,2013-05-02 22:28:00,
2013-05-02 18:33:00,57.4,53.5,30.00,SSE,158,0.0,0.0,87,0.00,,,0.07,WeatherDisplay:10.37,2013-05-02 22:33:00,
2013-05-02 18:38:00,57.4,53.5,30.00,SSE,158,0.0,0.0,87,0.00,,,0.07,WeatherDisplay:10.37,2013-05-02 22:38:00,
2013-05-02 18:43:00,57.0,53.2,29.99,South,180,0.0,0.0,87,0.00,,,0.07,WeatherDisplay:10.37,2013-05-02 22:43:00,
2013-05-02 18:48:00,57.0,53.2,29.99,South,180,0.0,0.0,87,0.00,,,0.07,WeatherDisplay:10.37,2013-05-02 22:48:00,
2013-05-02 18:53:00,57.0,53.2,29.99,South,180,0.0,0.0,87,0.00,,,0.07,WeatherDisplay:10.37,2013-05-02 22:53:00,
2013-05-02 18:58:00,57.0,53.2,29.99,South,180,0.0,0.0,87,0.00,,,0.07,WeatherDisplay:10.37,2013-05-02 22:58:00,
2013-05-02 19:03:00,56.8,53.0,29.99,South,180,0.0,0.0,87,0.00,,,0.07,WeatherDisplay:10.37,2013-05-02 23:03:00,
2013-05-02 19:08:00,56.8,53.0,29.99,South,180,0.0,0.0,87,0.00,,,0.07,WeatherDisplay:10.37,2013-05-02 23:08:00,
2013-05-02 19:13:00,56.8,53.0,29.99,SW,225,0.0,0.0,87,0.00,,,0.07,WeatherDisplay:10.37,2013-05-02 23:13:00,
2013-05-02 19:18:00,56.8,53.3,29.98,SSW,202,0.0,0.0,88,0.00,,,0.07,WeatherDisplay:10.37,2013-05-02 23:18:00,
2013-05-02 19:23:00,56.8,53.3,29.99,SSW,202,0.0,0.0,88,0.00,,,0.07,WeatherDisplay:10.37,2013-05-02 23:23:00,
2013-05-02 19:28:00,56.5,53.0,29.99,SSW,202,0.0,0.0,88,0.00,,,0.07,WeatherDisplay:10.37,2013-05-02 23:28:00,
2013-05-02 19:33:00,56.5,53.0,29.99,SSE,158,0.0,0.0,88,0.00,,,0.07,WeatherDisplay:10.37,2013-05-02 23:33:00,
2013-05-02 19:38:00,56.5,53.0,30.00,South,180,0.0,0.0,88,0.00,,,0.07,WeatherDisplay:10.37,2013-05-02 23:38:00,
2013-05-02 19:43:00,56.3,52.8,30.00,SSW,202,0.0,0.0,88,0.00,,,0.09,WeatherDisplay:10.37,2013-05-02 23:43:00,
2013-05-02 19:48:00,56.3,52.8,30.00,SW,225,0.0,0.0,88,0.02,RA,,0.09,WeatherDisplay:10.37,2013-05-02 23:48:00,
2013-05-02 19:53:00,56.1,52.6,30.00,SSW,202,0.0,0.0,88,0.02,RA,,0.09,WeatherDisplay:10.37,2013-05-02 23:53:00,
2013-05-02 19:58:00,56.1,52.6,30.00,South,180,0.0,0.0,88,0.02,,,0.09,WeatherDisplay:10.37,2013-05-02 23:58:00,
2013-05-02 20:03:00,56.1,52.6,30.00,South,180,0.0,0.0,88,0.02,,,0.09,WeatherDisplay:10.37,2013-05-03 00:03:00,
2013-05-02 20:08:00,55.9,52.4,30.00,South,180,0.0,0.0,88,0.02,,,0.09,WeatherDisplay:10.37,2013-05-03 00:08:00,
2013-05-02 20:13:00,55.9,52.4,30.00,South,180,0.0,0.0,88,0.02,,,0.09,WeatherDisplay:10.37,2013-05-03 00:13:00,
2013-05-02 20:18:00,55.9,52.4,30.00,SSE,158,0.0,0.0,88,0.02,,,0.09,WeatherDisplay:10.37,2013-05-03 00:18:00,
2013-05-02 20:23:00,55.8,52.3,30.00,South,180,0.0,0.0,88,0.02,,,0.09,WeatherDisplay:10.37,2013-05-03 00:23:00,
2013-05-02 20:28:00,55.8,52.3,30.00,South,180,0.0,0.0,88,0.02,,,0.09,WeatherDisplay:10.37,2013-05-03 00:28:00,
2013-05-02 20:33:00,55.8,52.3,30.00,SSW,202,0.0,0.0,88,0.02,,,0.09,WeatherDisplay:10.37,2013-05-03 00:33:00,
2013-05-02 20:38:00,55.8,52.3,30.00,SSW,202,0.0,0.0,88,0.02,,,0.09,WeatherDisplay:10.37,2013-05-03 00:38:00,
2013-05-02 20:43:00,55.6,52.1,30.00,SSW,202,0.0,0.0,88,0.02,,,0.09,WeatherDisplay:10.37,2013-05-03 00:43:00,
2013-05-02 20:48:00,55.6,52.1,30.00,SSW,202,0.0,0.0,88,0.00,,,0.09,WeatherDisplay:10.37,2013-05-03 00:48:00,
2013-05-02 20:53:00,55.6,52.1,30.00,SSW,202,0.0,0.0,88,0.00,,,0.09,WeatherDisplay:10.37,2013-05-03 00:53:00,
2013-05-02 20:58:00,55.4,51.9,30.00,SW,225,0.0,0.0,88,0.00,,,0.09,WeatherDisplay:10.37,2013-05-03 00:58:00,
2013-05-02 21:03:00,55.2,52.0,30.00,SSW,202,0.0,0.0,89,0.00,,,0.09,WeatherDisplay:10.37,2013-05-03 01:03:00,
2013-05-02 21:08:00,55.2,52.0,30.00,SSW,202,0.0,0.0,89,0.00,,,0.09,WeatherDisplay:10.37,2013-05-03 01:08:00,
2013-05-02 21:13:00,55.2,52.0,30.00,SSW,202,0.0,0.0,89,0.00,,,0.09,WeatherDisplay:10.37,2013-05-03 01:13:00,
2013-05-02 21:18:00,55.2,52.0,30.00,SSW,202,0.0,0.0,89,0.00,,,0.09,WeatherDisplay:10.37,2013-05-03 01:18:00,
2013-05-02 21:23:00,55.2,52.0,30.01,SSW,202,0.0,0.0,89,0.00,,,0.09,WeatherDisplay:10.37,2013-05-03 01:23:00,
2013-05-02 21:28:00,55.0,51.9,30.01,SSW,202,0.0,0.0,89,0.00,,,0.09,WeatherDisplay:10.37,2013-05-03 01:28:00,
2013-05-02 21:33:00,55.0,51.9,30.01,SSW,202,0.0,0.0,89,0.00,,,0.09,WeatherDisplay:10.37,2013-05-03 01:33:00,
2013-05-02 21:38:00,55.0,51.9,30.00,SSW,202,0.0,0.0,89,0.00,,,0.09,WeatherDisplay:10.37,2013-05-03 01:38:00,
2013-05-02 21:43:00,55.0,51.9,30.01,SSW,202,0.0,0.0,89,0.00,,,0.09,WeatherDisplay:10.37,2013-05-03 01:43:00,
2013-05-02 21:48:00,55.0,51.9,30.01,SSW,202,0.0,0.0,89,0.00,,,0.09,WeatherDisplay:10.37,2013-05-03 01:48:00,
2013-05-02 21:53:00,55.0,51.9,30.01,SSW,202,0.0,0.0,89,0.00,,,0.09,WeatherDisplay:10.37,2013-05-03 01:53:00,
2013-05-02 21:58:00,54.9,51.7,30.01,SSW,202,0.0,0.0,89,0.00,,,0.09,WeatherDisplay:10.37,2013-05-03 01:58:00,
2013-05-02 22:03:00,55.0,51.9,30.01,SSW,202,0.0,0.0,89,0.00,,,0.09,WeatherDisplay:10.37,2013-05-03 02:03:00,
2013-05-02 22:08:00,55.0,51.9,30.01,SSW,202,0.0,0.0,89,0.00,,,0.09,WeatherDisplay:10.37,2013-05-03 02:08:00,
2013-05-02 22:13:00,55.0,51.9,30.01,SSW,202,0.0,0.0,89,0.00,,,0.09,WeatherDisplay:10.37,2013-05-03 02:13:00,
2013-05-02 22:18:00,55.0,51.9,30.01,SSW,202,0.0,0.0,89,0.00,,,0.09,WeatherDisplay:10.37,2013-05-03 02:18:00,
2013-05-02 22:23:00,55.0,51.9,30.00,SSW,202,0.0,0.0,89,0.00,,,0.09,WeatherDisplay:10.37,2013-05-03 02:23:00,
2013-05-02 22:28:00,55.0,51.9,30.01,SSW,202,0.0,0.0,89,0.00,,,0.09,WeatherDisplay:10.37,2013-05-03 02:28:00,
2013-05-02 22:34:00,55.0,51.9,30.01,SSW,202,0.0,0.0,89,0.00,,,0.09,WeatherDisplay:10.37,2013-05-03 02:34:00,
2013-05-02 22:39:00,54.9,51.7,30.01,SSW,202,0.0,0.0,89,0.00,,,0.09,WeatherDisplay:10.37,2013-05-03 02:39:00,
2013-05-02 22:44:00,54.7,51.5,30.00,SSW,202,0.0,0.0,89,0.00,,,0.09,WeatherDisplay:10.37,2013-05-03 02:44:00,
2013-05-02 22:49:00,54.7,51.5,30.00,SSW,202,0.0,0.0,89,0.00,,,0.09,WeatherDisplay:10.37,2013-05-03 02:49:00,
2013-05-02 22:54:00,54.7,51.5,30.00,SSW,202,0.0,0.0,89,0.00,,,0.09,WeatherDisplay:10.37,2013-05-03 02:54:00,
2013-05-02 22:59:00,54.7,51.5,30.00,SSW,202,0.0,0.0,89,0.00,,,0.09,WeatherDisplay:10.37,2013-05-03 02:59:00,
2013-05-02 23:04:00,54.7,51.5,30.00,SSW,202,0.0,0.0,89,0.00,,,0.09,WeatherDisplay:10.37,2013-05-03 03:04:00,
2013-05-02 23:09:00,54.7,51.5,30.00,SSW,202,0.0,0.0,89,0.00,,,0.09,WeatherDisplay:10.37,2013-05-03 03:09:00,
2013-05-02 23:14:00,54.7,51.5,30.00,SSW,202,0.0,0.0,89,0.00,,,0.09,WeatherDisplay:10.37,2013-05-03 03:14:00,
2013-05-02 23:19:00,54.7,51.5,29.99,SSW,202,0.0,0.0,89,0.00,,,0.09,WeatherDisplay:10.37,2013-05-03 03:19:00,
2013-05-02 23:24:00,54.7,51.5,29.99,SW,225,0.0,0.0,89,0.00,,,0.09,WeatherDisplay:10.37,2013-05-03 03:24:00,
2013-05-02 23:29:00,54.7,51.5,29.99,SW,225,0.0,0.0,89,0.00,,,0.09,WeatherDisplay:10.37,2013-05-03 03:29:00,
2013-05-02 23:34:00,54.7,51.5,29.99,SW,225,0.0,0.0,89,0.00,,,0.09,WeatherDisplay:10.37,2013-05-03 03:34:00,
2013-05-02 23:39:00,54.7,51.5,29.99,SW,225,0.0,0.0,89,0.00,,,0.09,WeatherDisplay:10.37,2013-05-03 03:39:00,
2013-05-02 23:44:00,54.5,51.3,29.99,SW,225,0.0,0.0,89,0.00,,,0.09,WeatherDisplay:10.37,2013-05-03 03:44:00,
2013-05-02 23:49:00,54.5,51.3,29.99,SSE,158,0.0,0.0,89,0.00,,,0.09,WeatherDisplay:10.37,2013-05-03 03:49:00,
2013-05-02 23:54:00,54.5,51.3,29.99,South,180,0.0,0.0,89,0.00,,,0.09,WeatherDisplay:10.37,2013-05-03 03:54:00,
2013-05-02 23:59:00,54.5,51.6,29.99,South,180,0.0,0.0,90,0.00,,,0.09,WeatherDisplay:10.37,2013-05-03 03:59:00,